"Time","Temp","Dewpoint","Humidity","Pressure","Direction","Speed","Gust","Precip","PrecipRate"
"00:04:59","51.2","44.1","76.7","30.11","340","0.4","2.4","0.00","0.00"
"00:09:56","51.2","43.8","75.8","30.11","340","0.8","2.4","0.00","0.00"
"00:14:59","51.2","43.9","76","30.11","340","0.1","1.2","0.00","0.00"
"00:19:57","51.3","43.8","75.6","30.10","339","1.1","3.6","0.00","0.00"
"00:24:58","51.4","43.6","74.4","30.10","339","1.2","3.6","0.00","0.00"
"00:29:59","51.6","43.8","74.5","30.10","340","1","4.8","0.00","0.00"
"00:34:57","51.8","43.5","73.2","30.10","332","1.5","3.6","0.00","0.00"
"00:39:56","52","43.4","72.3","30.10","343","1.4","7.2","0.00","0.00"
"00:44:57","52.3","43.4","71.6","30.10","324","1.7","7.2","0.00","0.00"
"00:49:59","52.6","43.4","70.9","30.10","327","0.9","4.8","0.00","0.00"
"00:54:56","52.8","43.2","69.8","30.10","310","1.8","6","0.00","0.00"
"00:59:58","52.9","43.3","69.6","30.10","269","0.4","3.6","0.00","0.00"
"01:04:55","52.7","43.2","69.8","30.10","269","0","1.2","0.00","0.00"
"01:09:59","52.6","43.1","70","30.10","269","0.3","1.2","0.00","0.00"
"01:14:59","52.4","42.9","70","30.10","269","0.6","3.6","0.00","0.00"
"01:19:56","52.4","42.9","70","30.10","265","1.4","3.6","0.00","0.00"
"01:24:58","52.4","42.9","70","30.10","265","1.1","2.4","0.00","0.00"
"01:29:56","52.4","43","70.2","30.10","265","0.9","4.8","0.00","0.00"
"01:34:58","52.3","43","70.5","30.10","265","0.7","2.4","0.00","0.00"
"01:39:57","52.2","43.1","71.2","30.10","265","0.3","2.4","0.00","0.00"
"01:44:59","52","43.1","71.7","30.10","265","0","0","0.00","0.00"
"01:49:58","51.7","43.3","73","30.10","265","0.1","2.4","0.00","0.00"
"01:54:59","51.3","43.1","73.4","30.10","265","0.3","2.3","0.00","0.00"
"01:59:56","51","42.8","73.6","30.11","265","0.1","1.2","0.00","0.00"
"02:04:58","50.7","42.7","73.9","30.11","265","0.9","2.4","0.00","0.00"
"02:09:57","50.8","42.3","72.7","30.11","216","1.9","4.8","0.00","0.00"
"02:14:58","51.2","42.8","73","30.11","205","0.5","4.6","0.00","0.00"
"02:19:56","51.1","42.9","73.7","30.10","216","0.8","3.6","0.00","0.00"
"02:24:57","51","42.8","73.6","30.10","178","1.4","6","0.00","0.00"
"02:29:59","50.9","42.7","73.5","30.10","170","0.2","2.4","0.00","0.00"
"02:34:57","50.7","42.7","74","30.10","170","0.2","2.3","0.00","0.00"
"02:39:56","50.4","42.4","74","30.10","170","0.2","2.4","0.00","0.00"
"02:44:58","50.2","42.4","74.7","30.10","170","0.2","1.2","0.00","0.00"
"02:49:56","49.8","42.4","75.6","30.10","170","0","0","0.00","0.00"
"02:54:58","49.5","42.2","76","30.10","170","0.1","1.2","0.00","0.00"
"02:59:56","49.4","42.2","76.4","30.11","170","0","0","0.00","0.00"
"03:04:59","49.2","42.3","77","30.11","170","0.2","2.4","0.00","0.00"
"03:09:58","48.9","42.1","77.2","30.11","170","0","0","0.00","0.00"
"03:14:58","48.7","42.1","78","30.12","170","0","0","0.00","0.00"
"03:19:59","48.4","42.1","78.9","30.12","170","0","0","0.00","0.00"
"03:24:57","48.1","41.9","79","30.12","170","0","0","0.00","0.00"
"03:29:59","48","42","79.6","30.12","170","0","0","0.00","0.00"
"03:34:57","47.8","41.9","80","30.12","170","0","1.2","0.00","0.00"
"03:39:57","47.7","41.8","80.1","30.12","170","0","0","0.00","0.00"
"03:44:59","47.4","42","81.2","30.12","170","0.3","2.4","0.00","0.00"
"03:49:57","47.1","41.9","82","30.12","170","0.3","2.4","0.00","0.00"
"03:54:58","47","42.1","82.8","30.12","170","0.1","2.4","0.00","0.00"
"03:59:56","46.9","42","83","30.12","170","0.6","2.4","0.00","0.00"
"04:04:58","46.9","42","83","30.12","170","0","1.2","0.00","0.00"
"04:09:57","46.8","41.9","83.3","30.12","170","0","0","0.00","0.00"
"04:14:57","46.6","42.1","84.4","30.13","170","0","0","0.00","0.00"
"04:19:59","46.4","42.1","85","30.13","170","0.5","3.6","0.00","0.00"
"04:24:56","46.3","42","85","30.13","170","0.7","2.4","0.00","0.00"
"04:29:58","46.2","41.9","85","30.13","170","0.2","1.2","0.00","0.00"
"04:34:56","46.2","41.9","85","30.13","170","0","0","0.00","0.00"
"04:39:56","46","41.9","85.8","30.13","170","0","0","0.00","0.00"
"04:44:58","45.7","41.8","86","30.13","170","0","0","0.00","0.00"
"04:49:56","45.5","41.6","86","30.13","170","0.5","2.4","0.00","0.00"
"04:54:58","45.3","41.6","86.9","30.13","170","0.5","3.6","0.00","0.00"
"04:59:56","45.2","41.6","87","30.14","170","0.5","2.4","0.00","0.00"
"05:04:57","45.2","41.6","87","30.14","170","0","0","0.00","0.00"
"05:09:57","45.1","41.5","87","30.14","170","0.3","2.4","0.00","0.00"
"05:14:56","44.9","41.3","87","30.14","170","0.1","2.3","0.00","0.00"
"05:19:58","44.7","41.1","87.2","30.14","170","0","0","0.00","0.00"
"05:24:56","44.5","41.2","87.9","30.14","170","0.1","1.2","0.00","0.00"
"05:29:57","44.4","41.3","88.6","30.15","170","0.2","1.2","0.00","0.00"
"05:34:59","44.3","41.3","89","30.15","170","0","1.2","0.00","0.00"
"05:39:59","44.3","41.3","89","30.15","170","0","0","0.00","0.00"
"05:44:56","44.1","41.1","89","30.15","170","0","0","0.00","0.00"
"05:49:58","43.9","40.9","89","30.15","170","0","0","0.00","0.00"
"05:54:56","43.7","40.7","89","30.15","170","0.1","1.2","0.00","0.00"
"05:59:58","43.5","40.8","89.9","30.15","170","0","1.2","0.00","0.00"
"06:04:56","43.4","40.7","90","30.15","170","0","0","0.00","0.00"
"06:09:56","43.4","40.9","91","30.15","170","0","0","0.00","0.00"
"06:14:56","43.4","40.9","91","30.15","170","0","0","0.00","0.00"
"06:19:58","43.4","40.9","91","30.15","170","0","0","0.00","0.00"
"06:24:59","43.4","40.9","91","30.15","170","0","0","0.00","0.00"
"06:29:57","43.3","40.8","91","30.16","170","0","0","0.00","0.00"
"06:34:58","43.2","40.8","91","30.16","170","0","0","0.00","0.00"
"06:39:57","43.2","40.8","91","30.16","170","0","0","0.00","0.00"
"06:44:59","43.1","40.7","91","30.16","170","0","0","0.00","0.00"
"06:49:57","43.1","40.7","91","30.16","170","0","0","0.00","0.00"
"06:54:59","43","40.6","91","30.16","170","0","0","0.00","0.00"
"06:59:57","42.9","40.6","91.6","30.17","170","0","0","0.00","0.00"
"07:04:59","43","40.8","92","30.17","170","0","0","0.00","0.00"
"07:09:58","43","40.8","92","30.17","170","1.3","2.4","0.00","0.00"
"07:14:58","43","40.8","92","30.17","170","1.1","2.4","0.00","0.00"
"07:19:57","43","40.8","92","30.17","170","0.1","1.2","0.00","0.00"
"07:24:58","43","40.8","92","30.17","170","0","0","0.00","0.00"
"07:29:56","43.1","41.1","93","30.17","170","0","0","0.00","0.00"
"07:34:58","43.1","41","92.4","30.17","170","0","0","0.00","0.00"
"07:39:58","43.2","41","92.1","30.17","170","0","0","0.00","0.00"
"07:44:59","43.4","41.5","93","30.18","170","0","0","0.00","0.00"
"07:49:57","44.1","42.2","93","30.18","170","0","0","0.00","0.00"
"07:54:58","44.8","42.9","93","30.18","170","0","1.2","0.00","0.00"
"07:59:56","45.5","43.3","92.2","30.18","170","0.9","2.4","0.00","0.00"
"08:04:57","46","43.6","91.2","30.18","170","0.8","2.4","0.00","0.00"
"08:09:56","46.8","44.3","91","30.18","170","0.1","2.3","0.00","0.00"
"08:14:56","47.4","44.7","90.3","30.18","170","0","0","0.00","0.00"
"08:19:58","48","45.2","90","30.18","170","0","0","0.00","0.00"
"08:24:59","49.1","46","89.1","30.18","170","0","0","0.00","0.00"
"08:29:57","50.3","46.6","86.8","30.18","170","0","0","0.00","0.00"
"08:34:58","51.5","46.4","82.8","30.18","170","0","0","0.00","0.00"
"08:39:57","53","47","79.9","30.18","170","0.6","2.4","0.00","0.00"
"08:44:59","54.1","46.9","76.7","30.19","170","0.8","4.8","0.00","0.00"
"08:49:56","55","47.1","74.8","30.19","170","0.9","3.6","0.00","0.00"
"08:54:58","55.8","46.8","71.9","30.19","169","1","6","0.00","0.00"
"08:59:55","56.4","46.7","70","30.19","191","2.2","4.8","0.00","0.00"
"09:04:57","56.8","46.8","69.1","30.19","321","1.9","4.8","0.00","0.00"
"09:09:56","57","46.6","68.2","30.19","279","2.1","4.8","0.00","0.00"
"09:14:55","57","46.7","68.5","30.20","278","1.4","4.8","0.00","0.00"
"09:19:57","57.2","46.7","68.1","30.20","289","2.3","7.2","0.00","0.00"
"09:24:59","57.3","46.7","67.7","30.20","247","1.2","4.8","0.00","0.00"
"09:29:56","57.6","47.2","68.2","30.20","255","1.9","4.8","0.00","0.00"
"09:34:58","58.1","47.6","68.2","30.20","281","0","1.2","0.00","0.00"
"09:39:56","58.5","47.5","66.7","30.20","331","2.8","12","0.00","0.00"
"09:44:58","58.5","46.9","65.3","30.20","313","4.3","13.2","0.00","0.00"
"09:49:59","58.6","47.4","66.2","30.20","331","3.9","13.2","0.00","0.00"
"09:54:56","58.9","47.7","66.3","30.20","298","3.9","13.2","0.00","0.00"
"09:59:57","59.1","47.3","65.1","30.21","323","5","13.2","0.00","0.00"
"10:04:58","59.2","47.5","65.1","30.21","323","5.1","18.4","0.00","0.00"
"10:09:57","59.3","47.4","64.8","30.21","315","5.4","15","0.00","0.00"
"10:14:56","59.3","47","63.8","30.21","318","4.5","12","0.00","0.00"
"10:19:58","59.6","47.8","65.2","30.21","280","4","13.2","0.00","0.00"
"10:24:59","59.7","47.6","64.1","30.21","302","6.3","13.2","0.00","0.00"
"10:29:56","59.8","47.8","64.5","30.22","325","6.3","16.1","0.00","0.00"
"10:34:57","60","48","64.5","30.22","324","5.9","16.1","0.00","0.00"
"10:39:57","60.3","48.5","64.9","30.22","328","5.1","15","0.00","0.00"
"10:44:59","60.4","48.2","64.2","30.22","336","5.5","15","0.00","0.00"
"10:49:56","60.4","48.4","64.4","30.22","327","7.6","17.3","0.00","0.00"
"10:54:57","60.4","48.6","65","30.22","342","5.2","17.3","0.00","0.00"
"10:59:59","60.6","48.6","64.5","30.22","317","4.4","15","0.00","0.00"
"11:04:56","60.7","48.2","63.7","30.22","329","6.1","15","0.00","0.00"
"11:09:59","60.5","48.6","64.8","30.22","329","6.3","15","0.00","0.00"
"11:14:58","60.5","48.6","64.7","30.22","331","5.8","15","0.00","0.00"
"11:19:59","61","49.5","65.9","30.22","308","4.3","16.1","0.00","0.00"
"11:24:57","61.7","49.7","64.7","30.22","317","6.2","17.3","0.00","0.00"
"11:29:59","61.8","49.7","64.5","30.22","333","5.1","21.9","0.00","0.00"
"11:34:57","61.8","49.5","64","30.22","332","6.8","16.1","0.00","0.00"
"11:39:57","61.2","49.3","64.9","30.22","336","4.8","15","0.00","0.00"
"11:44:59","61.3","49.7","65.8","30.22","322","5.1","13.2","0.00","0.00"
"11:49:56","61.5","49.6","64.8","30.22","316","5.9","16.1","0.00","0.00"
"11:54:58","62","50","64.8","30.22","305","6","18","0.00","0.00"
"11:59:56","62.4","50.1","64.1","30.22","331","4.6","17.3","0.00","0.00"
"12:04:57","62.8","50.8","64.9","30.22","328","3.2","10.8","0.00","0.00"
"12:09:56","63.3","51.1","64.6","30.22","269","4.2","12","0.00","0.00"
"12:14:59","63.6","51.2","64","30.22","259","3.3","8.4","0.00","0.00"
"12:19:57","64.2","52.1","64.9","30.22","290","3.3","16.1","0.00","0.00"
"12:24:59","64.2","51.4","63.1","30.22","293","4.4","16.1","0.00","0.00"
"12:29:57","64.6","52.1","63.8","30.22","249","3.5","7.2","0.00","0.00"
"12:34:59","64.8","51.5","62.1","30.21","324","5.1","15","0.00","0.00"
"12:39:58","64.8","51.2","61.5","30.21","311","4.3","12","0.00","0.00"
"12:44:56","64.8","51.3","61.7","30.21","284","4.7","13.2","0.00","0.00"
"12:49:58","65.2","52.4","63.3","30.21","312","4.7","15.6","0.00","0.00"
"12:54:59","65.2","51.7","61.7","30.21","331","4.8","16.1","0.00","0.00"
"12:59:58","65.8","52.9","63.1","30.21","2","3.4","16.1","0.00","0.00"
"13:04:59","66.3","52.6","61.4","30.21","326","5.7","16.1","0.00","0.00"
"13:09:58","66.6","52.8","61.2","30.21","307","3.1","9.6","0.00","0.00"
"13:14:59","66.7","52.7","60.6","30.21","265","5.2","12","0.00","0.00"
"13:19:56","67","52.9","60.5","30.21","290","4.1","13.2","0.00","0.00"
"13:24:58","66.9","52.4","59.6","30.21","296","4.7","16.1","0.00","0.00"
"13:29:56","66.8","52","59.2","30.21","312","4.7","10.8","0.00","0.00"
"13:34:57","66.4","52","60","30.21","329","5.8","13.2","0.00","0.00"
"13:39:57","66.4","52.1","60.1","30.21","313","5.4","13.2","0.00","0.00"
"13:44:59","66.8","52.8","60.7","30.21","304","4.1","10.8","0.00","0.00"
"13:49:57","66.9","52.7","60.2","30.21","353","3.6","13.2","0.00","0.00"
"13:54:58","67.3","52.3","58.6","30.21","320","5.4","13.2","0.00","0.00"
"13:59:59","67.5","52.8","59.2","30.21","333","5.2","18","0.00","0.00"
"14:04:57","67.3","52","58","30.21","340","7.9","18.4","0.00","0.00"
"14:09:59","66.8","52.3","59.7","30.21","330","5.3","16.1","0.00","0.00"
"14:14:59","66.8","52.3","59.7","30.21","315","3.9","11.5","0.00","0.00"
"14:19:57","67.1","52.3","59.2","30.21","338","6.4","19.6","0.00","0.00"
"14:24:58","66.5","52","59.6","30.21","340","5.9","17.3","0.00","0.00"
"14:29:56","66.6","52.5","60.4","30.21","335","5.4","17.3","0.00","0.00"
"14:34:57","67.1","52.9","60.4","30.21","306","4.8","13.2","0.00","0.00"
"14:39:56","67.8","53.3","59.8","30.21","336","3.9","10.8","0.00","0.00"
"14:44:59","68.5","53.6","59.2","30.21","317","4.9","10.8","0.00","0.00"
"14:49:56","68.2","52","56.3","30.21","320","4.7","13.2","0.00","0.00"
"14:54:58","67.4","52.2","58.1","30.21","295","4.3","13.2","0.00","0.00"
"14:59:59","66.8","52","58.9","30.21","305","4","12","0.00","0.00"
"15:04:57","67.4","52.8","59.5","30.21","327","5","16.1","0.00","0.00"
"15:09:56","68","52.8","58.1","30.21","322","4.1","15","0.00","0.00"
"15:14:59","68.5","53.2","58.1","30.21","325","4.4","9.6","0.00","0.00"
"15:19:57","68.3","52","56","30.21","335","4.9","15","0.00","0.00"
"15:24:58","67.3","51.8","57.5","30.21","332","3.4","12","0.00","0.00"
"15:29:56","66.4","51.6","59","30.21","336","3.8","12","0.00","0.00"
"15:34:57","65.9","52.1","61","30.21","333","3.2","7.2","0.00","0.00"
"15:39:57","65.9","51.3","59.4","30.21","341","5.2","10.8","0.00","0.00"
"15:44:58","65.8","51.6","60.2","30.21","341","3.8","10.4","0.00","0.00"
"15:49:56","65.9","51.7","60.2","30.21","348","5.2","14.4","0.00","0.00"
"15:54:57","65.8","51.7","60.3","30.21","332","4.9","13.2","0.00","0.00"
"15:59:58","65.7","51.8","60.8","30.21","327","4","10.8","0.00","0.00"
"16:04:56","66.2","52","60.4","30.21","342","4.2","17.3","0.00","0.00"
"16:09:58","66.4","52","59.8","30.21","333","4.6","12","0.00","0.00"
"16:14:58","66.6","51.8","59.1","30.21","331","3.8","8.4","0.00","0.00"
"16:19:59","66.6","52.5","60.4","30.21","301","2.2","6","0.00","0.00"
"16:24:57","67.4","53","60","30.21","306","3.2","7.2","0.00","0.00"
"16:29:59","68.1","52.8","58","30.21","332","3.8","12","0.00","0.00"
"16:34:56","68.6","52.8","56.9","30.21","331","4.6","12","0.00","0.00"
"16:39:56","69","52.9","56.6","30.21","339","4.5","12","0.00","0.00"
"16:44:57","69.1","52.7","55.9","30.21","325","4.9","12","0.00","0.00"
"16:49:59","69.1","52.5","55.7","30.21","333","4.7","12","0.00","0.00"
"16:54:57","69.1","52.4","55.4","30.21","341","5.2","13.2","0.00","0.00"
"16:59:56","68.9","51.9","54.6","30.22","324","5.9","12.7","0.00","0.00"
"17:04:57","68.3","51.9","55.8","30.22","318","5.9","17.3","0.00","0.00"
"17:09:56","67.6","51.4","56.2","30.22","310","5.4","14.4","0.00","0.00"
"17:14:59","66.8","51","56.9","30.23","309","3.4","16.8","0.00","0.00"
"17:19:57","66.2","50.9","57.9","30.23","332","4.1","17.3","0.00","0.00"
"17:24:59","66.3","51.1","58.1","30.23","311","4","12","0.00","0.00"
"17:29:57","66.6","51","57.1","30.23","329","5.2","16.1","0.00","0.00"
"17:34:59","66.6","51","57.3","30.23","332","4.6","14.4","0.00","0.00"
"17:39:59","65.9","50.7","58.1","30.23","327","4.6","15","0.00","0.00"
"17:44:57","65.3","50.8","59.5","30.23","316","3.4","12","0.00","0.00"
"17:49:56","65","50.8","60","30.23","321","4.2","10.4","0.00","0.00"
"17:54:58","65","51.4","61.4","30.23","344","3.2","9.6","0.00","0.00"
"17:59:56","64.9","51.1","61","30.24","327","4.6","8.4","0.00","0.00"
"18:04:57","64.7","51.1","61.4","30.24","331","4.2","10.8","0.00","0.00"
"18:09:56","64.5","51","61.5","30.24","321","4.1","10.4","0.00","0.00"
"18:14:56","64.3","50.9","61.6","30.24","322","2.4","12","0.00","0.00"
"18:19:57","64.1","51","62.5","30.24","314","4.1","8.4","0.00","0.00"
"18:24:59","63.8","51","63","30.24","335","3.6","13.2","0.00","0.00"
"18:29:57","63.6","50.8","63","30.24","335","5.7","12","0.00","0.00"
"18:34:59","63.3","50.7","63.7","30.24","329","4.1","9.6","0.00","0.00"
"18:39:59","63","50.6","64","30.24","351","3.4","8.4","0.00","0.00"
"18:44:57","62.7","50.8","65","30.24","317","2.1","6","0.00","0.00"
"18:49:59","62.4","50.8","65.8","30.24","309","0.8","3.6","0.00","0.00"
"18:54:57","62.1","50.7","66.1","30.24","309","1.4","3.6","0.00","0.00"
"18:59:59","61.8","50.6","66.7","30.24","309","1.5","3.6","0.00","0.00"
"19:04:57","61.5","50.5","67.2","30.24","309","0.3","3.6","0.00","0.00"
"19:09:57","61.3","50.7","68.2","30.24","290","1.1","7.2","0.00","0.00"
"19:14:57","60.9","50.7","69","30.25","212","1.2","6.9","0.00","0.00"
"19:19:59","60.7","50.9","70","30.25","277","1.1","4.8","0.00","0.00"
"19:24:57","60.3","50.9","70.8","30.25","336","0.4","2.4","0.00","0.00"
"19:29:59","60","50.8","71.8","30.26","334","0.4","2.4","0.00","0.00"
"19:34:57","59.6","50.8","72.4","30.26","333","0.5","3.6","0.00","0.00"
"19:39:57","59.3","50.6","73","30.26","333","1.1","4.8","0.00","0.00"
"19:44:59","59.1","50.6","73.5","30.26","333","0.5","3.6","0.00","0.00"
"19:49:58","58.9","50.6","74","30.26","333","0.9","3.6","0.00","0.00"
"19:54:56","58.7","50.4","74","30.26","334","1.6","6","0.00","0.00"
"19:59:58","58.5","50.5","74.8","30.26","337","1.5","4.8","0.00","0.00"
"20:04:56","58.2","50.3","75","30.26","333","0.8","4.8","0.00","0.00"
"20:09:59","58.1","50.2","75","30.26","334","1.3","4.6","0.00","0.00"
"20:14:59","57.9","50.3","75.7","30.26","334","0.5","2.4","0.00","0.00"
"20:19:57","57.7","50.2","76","30.26","335","0.8","4.8","0.00","0.00"
"20:24:56","57.4","50","76.3","30.26","336","0.4","3.6","0.00","0.00"
"20:29:58","57.2","50.1","77","30.27","336","0.1","1.2","0.00","0.00"
"20:34:56","57","49.9","77","30.27","336","0.5","2.4","0.00","0.00"
"20:39:56","56.7","49.7","77.6","30.27","336","0.1","1.2","0.00","0.00"
"20:44:59","56.3","49.7","78.4","30.27","336","0.5","4.8","0.00","0.00"
"20:49:58","56.1","49.7","79","30.27","336","0.2","2.3","0.00","0.00"
"20:54:59","55.9","49.5","79","30.27","336","0.8","2.4","0.00","0.00"
"20:59:57","55.7","49.4","79.3","30.28","336","0.2","2.4","0.00","0.00"
"21:04:59","55.6","49.5","80","30.28","336","0.2","2.4","0.00","0.00"
"21:09:58","55.3","49.2","80","30.28","336","0.9","4.8","0.00","0.00"
"21:14:58","55.1","49.4","80.9","30.28","336","0.2","2.3","0.00","0.00"
"21:19:56","55","49.3","81","30.28","336","0.8","3.6","0.00","0.00"
"21:24:57","55","49.3","81","30.28","336","0.6","3.6","0.00","0.00"
"21:29:55","54.9","49.2","81","30.29","336","0.8","3.6","0.00","0.00"
"21:34:58","54.8","49.1","81","30.29","336","0.5","3.6","0.00","0.00"
"21:39:58","54.7","49.2","81.6","30.29","336","0.2","2.3","0.00","0.00"
"21:44:56","54.6","49.1","81.9","30.29","336","0","1.2","0.00","0.00"
"21:49:58","54.4","49","82","30.29","336","0","1.2","0.00","0.00"
"21:54:56","54.2","48.9","82.4","30.29","305","0.3","2.4","0.00","0.00"
"21:59:58","54","49","83","30.29","262","0.1","1.2","0.00","0.00"
"22:04:56","53.9","48.9","83","30.29","262","0.4","3.6","0.00","0.00"
"22:09:56","54","49","83","30.29","268","0.3","3.6","0.00","0.00"
"22:14:56","54.1","49.1","83","30.29","307","1.1","4.8","0.00","0.00"
"22:19:58","54.2","49","82.7","30.29","311","1","3.6","0.00","0.00"
"22:24:59","54.2","48.8","82","30.29","311","0.5","2.4","0.00","0.00"
"22:29:57","54.2","49","82.6","30.30","317","0.9","6","0.00","0.00"
"22:34:59","54.2","49.1","83","30.30","321","0.6","3.5","0.00","0.00"
"22:39:59","54.2","49.1","83","30.30","321","0.2","2.4","0.00","0.00"
"22:44:57","54.1","49","82.8","30.30","318","1.2","4.8","0.00","0.00"
"22:49:56","54.2","49.1","82.9","30.30","318","2.2","7.2","0.00","0.00"
"22:54:57","54.6","49.2","82","30.30","324","2.8","8.4","0.00","0.00"
"22:59:59","54.8","49.2","81.4","30.30","328","2.1","8.1","0.00","0.00"
"23:04:57","55","49.3","81","30.30","313","1.2","3.6","0.00","0.00"
"23:09:56","55.1","49.4","81","30.30","329","2.2","4.8","0.00","0.00"
"23:14:56","55.3","49.6","81","30.31","338","3.2","8.4","0.00","0.00"
"23:19:58","55.3","49.3","80.2","30.31","337","1.8","12","0.00","0.00"
"23:24:56","55.3","49.2","80","30.31","326","1.9","11.5","0.00","0.00"
"23:29:58","55.3","49.2","80","30.31","329","2.8","8.4","0.00","0.00"
"23:34:56","55.4","49.3","80","30.31","318","2.6","8.4","0.00","0.00"
"23:39:59","55.4","49.4","80","30.31","326","2","7.2","0.00","0.00"
"23:44:57","55.4","49.7","81","30.31","339","2.7","7.2","0.00","0.00"
"23:49:59","55.3","49.6","81","30.31","354","1.3","4.8","0.00","0.00"
"23:54:57","55.2","49.5","81","30.31","347","1.8","7.2","0.00","0.00"
